Weather History for Mount Carmel, IL

Change the Weather History Date:

Wednesday, October 31, 2012

  Actual Average (KLWV) Record (KLWV)
Temperature  
Mean Temperature 42 °F 53 °F  
Max Temperature 51 °F 64 °F 78 °F (1999)
Min Temperature 33 °F 42 °F 31 °F (1993)
Degree Days  
Heating Degree Days 23 13  
Month to date heating degree days 258  
Since 1 July heating degree days 297  
Cooling Degree Days 0 0  
Month to date cooling degree days 32  
Year to date cooling degree days 1386  
Moisture  
Dew Point 30 °F    
Average Humidity 64    
Maximum Humidity 81    
Minimum Humidity 47    
Precipitation  
Precipitation 0.00 in 0.07 in 2.51 in (2013)
Month to date precipitation 3.98  
Year to date precipitation 36.52  
Sea Level Pressure  
Sea Level Pressure 29.88 in    
Wind  
Wind Speed 10 mph (WNW)    
Max Wind Speed 20 mph    
Max Gust Speed 25 mph    
Visibility 10 miles    
Events      
T = Trace of Precipitation, MM = Missing Value Source: NWS Daily Summary

Daily Weather History Graph

Daily Weather History Graph

Search for Another Location

Airport:

Trip Planner

Search our weather history database for the weather conditions in past years. The results will help you decide how hot, cold, wet, or windy it might be!

Date:

Astronomy

Oct. 31, 2012 Rise Set
Actual Time 7:17 AM CDT 5:51 PM CDT
Civil Twilight 6:49 AM CDT 6:18 PM CDT
Nautical Twilight 6:18 AM CDT 6:50 PM CDT
Astronomical Twilight 5:47 AM CDT 7:21 PM CDT
Moon 7:03 PM CDT (10/31) 8:56 AM CDT (10/31)
Length of Visible Light 11h 29m
Length of Day
10h 34m
Full, 97% of the Moon is Illuminated
Oct 31
Full
Nov 6
Last Quarter
Nov 13
New
Nov 20
First Quarter
Nov 28
Full

Hourly Weather History & Observations

Time (CDT) Temp. Windchill Dew Point Humidity Pressure Visibility Wind Dir Wind Speed Gust Speed Precip Events Conditions
12:15 AM 41.0 °F 36.4 °F 28.4 °F 61% 29.83 in 10.0 mi West 6.9 mph - N/A   Clear
12:35 AM 37.4 °F 30.8 °F 30.2 °F 75% 29.82 in 10.0 mi West 9.2 mph - N/A   Clear
12:55 AM 41.0 °F 35.2 °F 30.2 °F 65% 29.82 in 10.0 mi West 9.2 mph - N/A   Clear
1:15 AM 41.0 °F 35.2 °F 30.2 °F 65% 29.82 in 10.0 mi WNW 9.2 mph - N/A   Clear
1:35 AM 39.2 °F 33.0 °F 28.4 °F 65% 29.83 in 10.0 mi WNW 9.2 mph - N/A   Clear
1:55 AM 39.2 °F 33.0 °F 30.2 °F 70% 29.83 in 10.0 mi West 9.2 mph - N/A   Clear
2:15 AM 37.4 °F 30.8 °F 30.2 °F 75% 29.84 in 10.0 mi West 9.2 mph - N/A   Clear
2:35 AM 37.4 °F 30.8 °F 28.4 °F 70% 29.84 in 10.0 mi West 9.2 mph - N/A   Clear
2:55 AM 37.4 °F 30.3 °F 28.4 °F 70% 29.84 in 10.0 mi West 10.4 mph - N/A   Clear
3:15 AM 37.4 °F 30.8 °F 28.4 °F 70% 29.84 in 10.0 mi West 9.2 mph - N/A   Clear
3:35 AM 37.4 °F 31.4 °F 28.4 °F 70% 29.84 in 10.0 mi WNW 8.1 mph - N/A   Clear
3:55 AM 35.6 °F 29.9 °F 28.4 °F 75% 29.84 in 10.0 mi WNW 6.9 mph - N/A   Clear
4:15 AM 35.6 °F 30.7 °F 28.4 °F 75% 29.84 in 10.0 mi WNW 5.8 mph - N/A   Clear
4:35 AM 33.8 °F 27.7 °F 28.4 °F 81% 29.84 in 10.0 mi West 6.9 mph - N/A   Clear
4:55 AM 33.8 °F 27.7 °F 28.4 °F 81% 29.85 in 10.0 mi West 6.9 mph - N/A   Clear
5:15 AM 33.8 °F 27.0 °F 28.4 °F 81% 29.85 in 10.0 mi West 8.1 mph - N/A   Clear
5:35 AM 33.8 °F 27.0 °F 28.4 °F 81% 29.86 in 10.0 mi West 8.1 mph - N/A   Clear
5:55 AM 33.8 °F 27.0 °F 28.4 °F 81% 29.85 in 10.0 mi West 8.1 mph - N/A   Clear
6:15 AM 33.8 °F 27.7 °F 28.4 °F 81% 29.86 in 10.0 mi West 6.9 mph - N/A   Clear
6:35 AM 33.8 °F 28.6 °F 28.4 °F 81% 29.86 in 10.0 mi WNW 5.8 mph - N/A   Clear
6:55 AM 33.8 °F 28.6 °F 28.4 °F 81% 29.86 in 10.0 mi WNW 5.8 mph - N/A   Clear
7:15 AM 33.8 °F 26.4 °F 28.4 °F 81% 29.86 in 10.0 mi WNW 9.2 mph - N/A   Clear
7:35 AM 35.6 °F 28.0 °F 28.4 °F 75% 29.87 in 10.0 mi WNW 10.4 mph - N/A   Clear
7:55 AM 35.6 °F 28.0 °F 28.4 °F 75% 29.87 in 10.0 mi WNW 10.4 mph - N/A   Clear
8:15 AM 37.4 °F 30.3 °F 28.4 °F 70% 29.88 in 10.0 mi WNW 10.4 mph - N/A   Clear
8:35 AM 37.4 °F 30.3 °F 28.4 °F 70% 29.89 in 10.0 mi NW 10.4 mph - N/A   Clear
8:55 AM 39.2 °F 32.5 °F 28.4 °F 65% 29.89 in 10.0 mi NW 10.4 mph 18.4 mph N/A   Clear
9:15 AM 41.0 °F 33.1 °F 28.4 °F 61% 29.89 in 10.0 mi NW 15.0 mph - N/A   Clear
9:35 AM 41.0 °F 33.5 °F 28.4 °F 61% 29.89 in 10.0 mi NW 13.8 mph - N/A   Clear
9:55 AM 42.8 °F 35.8 °F 30.2 °F 61% 29.89 in 10.0 mi WNW 13.8 mph 18.4 mph N/A   Clear
10:15 AM 42.8 °F 35.8 °F 30.2 °F 61% 29.89 in 10.0 mi WNW 13.8 mph - N/A   Clear
10:35 AM 44.6 °F 37.2 °F 30.2 °F 57% 29.89 in 10.0 mi WNW 17.3 mph - N/A   Clear
10:55 AM 44.6 °F 38.1 °F 30.2 °F 57% 29.89 in 10.0 mi WNW 13.8 mph - N/A   Clear
11:15 AM 46.4 °F 39.0 °F 30.2 °F 53% 29.89 in 10.0 mi WNW 19.6 mph 23.0 mph N/A   Clear
11:35 AM 46.4 °F 39.5 °F 30.2 °F 53% 29.90 in 10.0 mi WNW 17.3 mph 21.9 mph N/A   Clear
11:55 AM 48.2 °F - 30.2 °F 50% 29.89 in 10.0 mi WNW 18.4 mph 21.9 mph N/A   Clear
12:15 PM 48.2 °F - 32.0 °F 54% 29.89 in 10.0 mi WNW 13.8 mph - N/A   Clear
12:35 PM 50.0 °F - 32.0 °F 50% 29.89 in 10.0 mi NW 15.0 mph 21.9 mph N/A   Clear
12:55 PM 50.0 °F - 32.0 °F 50% 29.89 in 10.0 mi WNW 15.0 mph 21.9 mph N/A   Clear
1:15 PM 50.0 °F - 32.0 °F 50% 29.89 in 10.0 mi WNW 16.1 mph - N/A   Clear
1:35 PM 50.0 °F - 30.2 °F 47% 29.88 in 10.0 mi WNW 17.3 mph 24.2 mph N/A   Clear
1:55 PM 51.8 °F - 32.0 °F 47% 29.88 in 10.0 mi NW 18.4 mph 23.0 mph N/A   Clear
2:15 PM 51.8 °F - 32.0 °F 47% 29.87 in 10.0 mi WNW 17.3 mph 24.2 mph N/A   Clear
2:35 PM 51.8 °F - 32.0 °F 47% 29.87 in 10.0 mi NW 12.7 mph - N/A   Clear
2:55 PM 51.8 °F - 32.0 °F 47% 29.87 in 10.0 mi NW 19.6 mph 25.3 mph N/A   Clear
3:15 PM 51.8 °F - 32.0 °F 47% 29.87 in 10.0 mi NW 17.3 mph 25.3 mph N/A   Clear
3:35 PM 51.8 °F - 32.0 °F 47% 29.87 in 10.0 mi NW 13.8 mph 19.6 mph N/A   Clear
3:55 PM 51.8 °F - 32.0 °F 47% 29.87 in 10.0 mi NW 12.7 mph - N/A   Clear
4:15 PM 51.8 °F - 32.0 °F 47% 29.87 in 10.0 mi WNW 15.0 mph 21.9 mph N/A   Clear
4:35 PM 51.8 °F - 32.0 °F 47% 29.87 in 10.0 mi NW 13.8 mph 21.9 mph N/A   Clear
4:55 PM 51.8 °F - 32.0 °F 47% 29.88 in 10.0 mi NW 18.4 mph 24.2 mph N/A   Clear
5:15 PM 50.0 °F - 32.0 °F 50% 29.88 in 10.0 mi WNW 12.7 mph 18.4 mph N/A   Clear
5:35 PM 50.0 °F - 32.0 °F 50% 29.89 in 10.0 mi NW 12.7 mph - N/A   Clear
5:55 PM 48.2 °F - 30.2 °F 50% 29.89 in 10.0 mi NW 8.1 mph - N/A   Clear
6:15 PM 46.4 °F 41.9 °F 30.2 °F 53% 29.90 in 10.0 mi WNW 9.2 mph - N/A   Clear
6:55 PM 42.8 °F 38.6 °F 30.2 °F 61% 29.90 in 10.0 mi WNW 6.9 mph - N/A   Clear
7:15 PM 41.0 °F 36.4 °F 28.4 °F 61% 29.91 in 10.0 mi WNW 6.9 mph - N/A   Clear
7:35 PM 41.0 °F 38.0 °F 28.4 °F 61% 29.92 in 10.0 mi WNW 4.6 mph - N/A   Clear
7:55 PM 41.0 °F 39.0 °F 30.2 °F 65% 29.92 in 10.0 mi West 3.5 mph - N/A   Clear
8:15 PM 39.2 °F 37.0 °F 30.2 °F 70% 29.93 in 10.0 mi West 3.5 mph - N/A   Clear
8:35 PM 37.4 °F 33.8 °F 30.2 °F 75% 29.93 in 10.0 mi West 4.6 mph - N/A   Clear
8:55 PM 37.4 °F - 30.2 °F 75% 29.93 in 10.0 mi Calm Calm - N/A   Clear
9:15 PM 37.4 °F - 30.2 °F 75% 29.93 in 10.0 mi Calm Calm - N/A   Clear
9:35 PM 35.6 °F - 30.2 °F 81% 29.93 in 10.0 mi Calm Calm - N/A   Clear
10:15 PM 37.4 °F - 30.2 °F 75% 29.93 in 10.0 mi Calm Calm - N/A   Clear
10:35 PM 35.6 °F - 30.2 °F 81% 29.93 in 10.0 mi Calm Calm - N/A   Clear
11:15 PM 35.6 °F - 28.4 °F 75% 29.93 in 10.0 mi Calm Calm - N/A   Clear
11:35 PM 35.6 °F - 28.4 °F 75% 29.93 in 10.0 mi Calm Calm - N/A   Clear
11:55 PM 35.6 °F - 28.4 °F 75% 29.93 in 10.0 mi Calm Calm - N/A   Clear